Tracking 30923 objects as of 1-Jul-2025
HD Live streaming from Space Station
objects crossing your sky now

CZ-2D R/B

Track CZ-2D R/B now!
10-day predictions


NORAD ID: 53878
Int'l Code: 2022-115B
Perigee: 581.2 km
Apogee: 748.3 km
Inclination: 98.5 °
Period: 97.9 minutes
Semi major axis: 7035 km
RCS: Unknown
Launch date: September 20, 2022
Source: People's Republic of China (PRC)
Launch site: Jiuquan Satellite Launch Center, China (JSC)

Note: This is a ROCKET BODY
Your satellite tracking list
Your tracking list is empty




NASA's NSSDC Master Catalog

Two Line Element Set (TLE):
1 53878U 22115B   25181.87180493  .00000706  00000-0  11173-3 0  9998
2 53878  98.4573 239.8658 0118733 100.5925 260.8680 14.71081478148896
Source of the keplerian elements: AFSPC